TimeEST,TemperatureF,Dew PointF,Humidity,Sea Level PressureIn,VisibilityMPH,Wind Direction,Wind SpeedMPH,Gust SpeedMPH,PrecipitationIn,Events,Conditions,WindDirDegrees,DateUTC
12:15 AM,44.6,35.6,71,30.04,10.0,West,16.1,20.7,N/A,,Clear,280,2013-11-10 05:15:00
12:35 AM,44.6,35.6,71,30.04,10.0,West,16.1,23.0,N/A,,Clear,280,2013-11-10 05:35:00
12:55 AM,44.6,35.6,71,30.04,10.0,West,17.3,-,N/A,,Clear,280,2013-11-10 05:55:00
1:15 AM,44.6,33.8,66,30.04,10.0,WNW,21.9,28.8,N/A,,Clear,290,2013-11-10 06:15:00
1:35 AM,42.8,32.0,66,30.05,10.0,West,21.9,32.2,N/A,,Clear,280,2013-11-10 06:35:00
1:55 AM,42.8,28.4,57,30.05,10.0,West,24.2,36.8,N/A,,Clear,280,2013-11-10 06:55:00
2:15 AM,41.0,28.4,61,30.05,10.0,West,19.6,26.5,N/A,,Clear,270,2013-11-10 07:15:00
2:35 AM,41.0,26.6,57,30.06,10.0,West,23.0,27.6,N/A,,Clear,280,2013-11-10 07:35:00
2:55 AM,41.0,26.6,57,30.06,10.0,West,16.1,32.2,N/A,,Clear,280,2013-11-10 07:55:00
3:15 AM,39.2,26.6,61,30.07,10.0,West,18.4,25.3,N/A,,Clear,280,2013-11-10 08:15:00
3:35 AM,37.4,26.6,65,30.08,10.0,WNW,18.4,23.0,N/A,,Clear,290,2013-11-10 08:35:00
3:55 AM,37.4,26.6,65,30.09,10.0,WNW,16.1,-,N/A,,Scattered Clouds,290,2013-11-10 08:55:00
4:15 AM,37.4,26.6,65,30.09,10.0,West,15.0,23.0,N/A,,Scattered Clouds,280,2013-11-10 09:15:00
4:35 AM,37.4,26.6,65,30.10,10.0,West,15.0,20.7,N/A,,Overcast,280,2013-11-10 09:35:00
4:55 AM,37.4,26.6,65,30.10,10.0,West,12.7,18.4,N/A,,Overcast,280,2013-11-10 09:55:00
5:15 AM,37.4,26.6,65,30.12,10.0,West,11.5,-,N/A,,Overcast,270,2013-11-10 10:15:00
5:35 AM,37.4,26.6,65,30.13,10.0,West,10.4,-,N/A,,Scattered Clouds,280,2013-11-10 10:35:00
5:55 AM,37.4,26.6,65,30.14,10.0,West,8.1,-,N/A,,Scattered Clouds,270,2013-11-10 10:55:00
6:15 AM,35.6,28.4,75,30.15,10.0,West,10.4,-,N/A,,Mostly Cloudy,270,2013-11-10 11:15:00
6:35 AM,35.6,28.4,75,30.16,10.0,West,12.7,17.3,N/A,,Overcast,280,2013-11-10 11:35:00
6:55 AM,35.6,28.4,75,30.17,10.0,West,12.7,-,N/A,,Overcast,270,2013-11-10 11:55:00
7:15 AM,35.6,28.4,75,30.18,10.0,West,12.7,-,N/A,,Overcast,270,2013-11-10 12:15:00
7:35 AM,35.6,28.4,75,30.19,10.0,West,10.4,-,N/A,,Overcast,270,2013-11-10 12:35:00
7:55 AM,35.6,28.4,75,30.20,10.0,West,10.4,-,N/A,,Overcast,270,2013-11-10 12:55:00
8:15 AM,35.6,30.2,81,30.21,10.0,West,11.5,-,N/A,,Overcast,270,2013-11-10 13:15:00
8:35 AM,35.6,30.2,81,30.22,10.0,West,10.4,-,N/A,,Overcast,260,2013-11-10 13:35:00
8:55 AM,37.4,30.2,75,30.23,10.0,West,11.5,-,N/A,,Overcast,280,2013-11-10 13:55:00
9:15 AM,37.4,30.2,75,30.24,10.0,West,11.5,-,N/A,,Overcast,270,2013-11-10 14:15:00
9:35 AM,37.4,30.2,75,30.25,10.0,West,12.7,-,N/A,,Overcast,270,2013-11-10 14:35:00
9:55 AM,37.4,30.2,75,30.25,10.0,West,12.7,-,N/A,,Overcast,270,2013-11-10 14:55:00
10:15 AM,39.2,30.2,70,30.27,10.0,West,11.5,-,N/A,,Overcast,280,2013-11-10 15:15:00
10:35 AM,39.2,32.0,75,30.27,10.0,West,12.7,17.3,N/A,,Overcast,270,2013-11-10 15:35:00
10:55 AM,41.0,32.0,70,30.28,10.0,WNW,13.8,-,N/A,,Overcast,300,2013-11-10 15:55:00
11:15 AM,41.0,30.2,65,30.29,10.0,WNW,12.7,19.6,N/A,,Overcast,290,2013-11-10 16:15:00
11:35 AM,41.0,32.0,70,30.30,10.0,WNW,12.7,-,N/A,,Overcast,290,2013-11-10 16:35:00
11:55 AM,41.0,32.0,70,30.30,10.0,WNW,15.0,19.6,N/A,,Overcast,300,2013-11-10 16:55:00
12:15 PM,41.0,32.0,70,30.30,10.0,WNW,15.0,23.0,N/A,,Overcast,290,2013-11-10 17:15:00
12:35 PM,42.8,32.0,66,30.29,10.0,WNW,11.5,17.3,N/A,,Overcast,300,2013-11-10 17:35:00
12:55 PM,42.8,32.0,66,30.29,10.0,WNW,15.0,-,N/A,,Overcast,300,2013-11-10 17:55:00
1:15 PM,42.8,32.0,66,30.29,10.0,NW,15.0,-,N/A,,Overcast,310,2013-11-10 18:15:00
1:35 PM,42.8,32.0,66,30.29,10.0,NW,15.0,-,N/A,,Overcast,310,2013-11-10 18:35:00
1:55 PM,44.6,32.0,61,30.29,10.0,WNW,16.1,20.7,N/A,,Overcast,300,2013-11-10 18:55:00
2:15 PM,44.6,32.0,61,30.30,10.0,WNW,15.0,-,N/A,,Overcast,300,2013-11-10 19:15:00
2:35 PM,46.4,32.0,57,30.30,10.0,WNW,11.5,-,N/A,,Overcast,300,2013-11-10 19:35:00
2:55 PM,44.6,32.0,61,30.31,10.0,WNW,12.7,-,N/A,,Mostly Cloudy,290,2013-11-10 19:55:00
3:15 PM,44.6,32.0,61,30.30,10.0,WNW,8.1,17.3,N/A,,Scattered Clouds,290,2013-11-10 20:15:00
3:35 PM,42.8,32.0,66,30.30,10.0,WNW,9.2,-,N/A,,Scattered Clouds,300,2013-11-10 20:35:00
3:55 PM,44.6,32.0,61,30.30,10.0,West,11.5,17.3,N/A,,Scattered Clouds,280,2013-11-10 20:55:00
4:15 PM,44.6,32.0,61,30.31,10.0,West,11.5,-,N/A,,Scattered Clouds,280,2013-11-10 21:15:00
4:35 PM,42.8,32.0,66,30.31,10.0,WNW,9.2,-,N/A,,Scattered Clouds,290,2013-11-10 21:35:00
4:55 PM,42.8,32.0,66,30.32,10.0,WNW,5.8,-,N/A,,Clear,300,2013-11-10 21:55:00
5:15 PM,41.0,32.0,70,30.32,10.0,West,5.8,-,N/A,,Clear,280,2013-11-10 22:15:00
5:35 PM,37.4,30.2,75,30.32,10.0,West,6.9,-,N/A,,Clear,280,2013-11-10 22:35:00
5:55 PM,35.6,30.2,81,30.32,10.0,WNW,5.8,-,N/A,,Clear,290,2013-11-10 22:55:00
6:15 PM,35.6,30.2,81,30.32,10.0,WNW,4.6,-,N/A,,Clear,300,2013-11-10 23:15:00
6:35 PM,35.6,30.2,81,30.32,10.0,Calm,Calm,-,N/A,,Clear,0,2013-11-10 23:35:00
6:55 PM,35.6,30.2,81,30.32,10.0,Calm,Calm,-,N/A,,Clear,0,2013-11-10 23:55:00
7:15 PM,33.8,30.2,87,30.31,10.0,Calm,Calm,-,N/A,,Clear,0,2013-11-11 00:15:00
7:35 PM,32.0,28.4,87,30.31,10.0,Calm,Calm,-,N/A,,Clear,0,2013-11-11 00:35:00
7:55 PM,32.0,28.4,87,30.31,10.0,Calm,Calm,-,N/A,,Clear,0,2013-11-11 00:55:00
8:15 PM,30.2,28.4,93,30.31,10.0,Calm,Calm,-,N/A,,Clear,0,2013-11-11 01:15:00
8:35 PM,30.2,28.4,93,30.31,10.0,Calm,Calm,-,N/A,,Clear,0,2013-11-11 01:35:00
8:55 PM,32.0,30.2,93,30.30,10.0,SSE,3.5,-,N/A,,Clear,160,2013-11-11 01:55:00
9:15 PM,32.0,30.2,93,30.29,10.0,Calm,Calm,-,N/A,,Clear,0,2013-11-11 02:15:00
9:35 PM,32.0,28.4,87,30.30,10.0,Calm,Calm,-,N/A,,Clear,0,2013-11-11 02:35:00
9:55 PM,30.2,26.6,86,30.29,7.0,Calm,Calm,-,N/A,,Clear,0,2013-11-11 02:55:00
10:15 PM,30.2,28.4,93,30.30,10.0,Calm,Calm,-,N/A,,Clear,0,2013-11-11 03:15:00
10:35 PM,30.2,28.4,93,30.29,10.0,Calm,Calm,-,N/A,,Mostly Cloudy,0,2013-11-11 03:35:00
10:55 PM,32.0,30.2,93,30.29,10.0,Calm,Calm,-,N/A,,Overcast,0,2013-11-11 03:55:00
11:15 PM,32.0,30.2,93,30.28,10.0,Calm,Calm,-,N/A,,Overcast,0,2013-11-11 04:15:00
11:35 PM,33.8,30.2,87,30.27,10.0,Calm,Calm,-,N/A,,Overcast,0,2013-11-11 04:35:00
11:55 PM,35.6,30.2,81,30.27,10.0,SW,3.5,-,N/A,,Overcast,220,2013-11-11 04:55:00